カタログに戻る

O3B MPOWER F10

運用中通信MEO
NORAD 64867·PAYLOAD·🇱🇺 Luxembourg

打ち上げ Jul 22, 2025 から Cape Canaveral Space Force Station

Loading…

次のパス (今後24時間)

TLE

最新Source: CelesTrak SupGP

元期: Sep 14, 2026, 19:59 UTC

1 64867C 25153B   26257.83333333  .00000000  00000+0  00000+0 0  2573
2 64867   0.0624 355.8176 0004596 271.6713 345.2868  5.00114993    10

AllMySatでO3B MPOWER F10をリアルタイム追跡

Download on the App Store